Location: Asheville, NC
(35.6000°N, 82.5500°W)
Time: 15:00:26
(UTC-05:00)

CUTE-I - Visible Passes

Search period start: 18 January 2018 00:00
Search period end: 28 January 2018 00:00
Orbit: 810 x 826 km, 98.7° (Epoch: 18 January)

Date Brightness Start Highest point End Pass type
(mag) Time Alt. Az. Time Alt. Az. Time Alt. Az.
18 Jan ? 06:20:00 10° NNE 06:24:59 40° E 06:29:56 10° SSE visible
18 Jan ? 19:20:40 10° SW 19:24:07 18° W 19:27:37 10° NW visible
19 Jan ? 05:59:15 10° NE 06:03:34 25° E 06:07:52 10° SSE visible
19 Jan ? 18:58:09 10° SSW 19:02:41 28° W 19:07:12 10° NW visible
20 Jan ? 05:39:04 10° ENE 05:42:05 15° E 05:45:06 10° SE visible
20 Jan ? 18:36:12 10° S 18:41:17 46° W 18:46:22 10° NNW visible
21 Jan ? 06:55:51 10° NNE 07:01:11 90° S 07:06:31 10° SSW visible
21 Jan ? 18:14:39 10° S 18:19:56 75° WSW 18:25:16 10° NNW visible
22 Jan ? 06:34:39 10° NNE 06:39:53 56° E 06:45:06 10° S visible
22 Jan ? 19:37:08 10° WSW 19:39:08 12° W 19:41:09 10° WNW visible
23 Jan ? 06:13:41 10° NNE 06:18:31 34° E 06:23:19 10° SSE visible
23 Jan ? 19:13:47 10° SW 19:17:38 20° W 19:21:30 10° NW visible
24 Jan ? 05:53:04 10° NE 05:57:05 21° E 06:01:05 10° SE visible
24 Jan ? 18:51:28 10° SSW 18:56:11 33° W 19:00:57 10° NW visible
25 Jan ? 05:33:13 10° ENE 05:35:35 13° E 05:37:57 10° ESE visible
25 Jan ? 18:29:39 10° S 18:34:49 53° W 18:40:00 10° NNW visible
26 Jan ? 06:49:24 10° NNE 06:54:45 79° ESE 07:00:05 10° S visible
26 Jan ? 18:08:12 10° SSE 18:13:30 86° WSW 18:18:50 10° NNW visible
27 Jan ? 06:28:17 10° NNE 06:33:26 48° E 06:38:33 10° S visible
27 Jan ? 19:29:52 10° SW 19:32:37 14° W 19:35:23 10° WNW visible
